| time (UTC) | temp C | wind direction | speed KPH | gust KPH | rain 1hr cm | rain 24hr cm | rain mn cm | humidity % | barometer mb |
| 20260502212841 | 18 | 45 | 3.2 | 12.9 | 0.00 | 0.00 | 0.00 | 36 | 1010.2 |
| 20260502212343 | 18 | 268 | 4.8 | 14.5 | 0.00 | 0.00 | 0.00 | 36 | 1010.2 |
| 20260502211842 | 17 | 302 | 4.8 | 16.1 | 0.00 | 0.00 | 0.00 | 36 | 1010.3 |
| 20260502211336 | 17 | 220 | 4.8 | 16.1 | 0.00 | 0.00 | 0.00 | 36 | 1010.4 |
| 20260502210830 | 17 | 246 | 4.8 | 11.3 | 0.00 | 0.00 | 0.00 | 35 | 1010.4 |
| 20260502210324 | 17 | 234 | 4.8 | 12.9 | 0.00 | 0.00 | 0.00 | 35 | 1010.5 |
| 20260502205818 | 17 | 230 | 3.2 | 12.9 | 0.00 | 0.00 | 0.00 | 35 | 1010.7 |
| 20260502205312 | 17 | 105 | 3.2 | 12.9 | 0.00 | 0.00 | 0.00 | 35 | 1010.8 |
| 20260502204806 | 17 | 353 | 3.2 | 9.7 | 0.00 | 0.00 | 0.00 | 35 | 1010.9 |
| 20260502204300 | 17 | 231 | 3.2 | 12.9 | 0.00 | 0.00 | 0.00 | 34 | 1011.0 |
| 20260502203754 | 17 | 219 | 3.2 | 12.9 | 0.00 | 0.00 | 0.00 | 35 | 1011.1 |
| 20260502203248 | 18 | 323 | 3.2 | 16.1 | 0.00 | 0.00 | 0.00 | 34 | 1011.2 |
| 20260502203005 | 18 | 216 | 4.8 | 17.7 | 0.00 | 0.00 | 0.00 | 35 | 1011.4 |
| 20260502202841 | 18 | 165 | 4.8 | 16.1 | 0.00 | 0.00 | 0.00 | 34 | 1011.3 |
| 20260502202339 | 18 | 111 | 4.8 | 17.7 | 0.00 | 0.00 | 0.00 | 34 | 1011.4 |
| 20260502201224 | 18 | 160 | 4.8 | 16.1 | 0.00 | 0.00 | 0.00 | 35 | 1011.6 |
| 20260502200949 | 17 | 289 | 4.8 | 16.1 | 0.00 | 0.00 | 0.00 | 34 | 1011.7 |
| 20260502200212 | 17 | 49 | 4.8 | 16.1 | 0.00 | 0.00 | 0.00 | 34 | 1011.7 |
| 20260502195706 | 17 | 136 | 3.2 | 12.9 | 0.00 | 0.00 | 0.00 | 35 | 1011.8 |
| 20260502195200 | 17 | 302 | 3.2 | 12.9 | 0.00 | 0.00 | 0.00 | 37 | 1011.9 |
| 20260502194926 | 16 | 55 | 3.2 | 24.1 | 0.00 | 0.00 | 0.00 | 36 | 1012.0 |
| 20260502194148 | 16 | 182 | 6.4 | 24.1 | 0.00 | 0.00 | 0.00 | 35 | 1012.2 |
| 20260502193643 | 16 | 143 | 4.8 | 17.7 | 0.00 | 0.00 | 0.00 | 35 | 1012.3 |
| 20260502193136 | 17 | 295 | 3.2 | 14.5 | 0.00 | 0.00 | 0.00 | 34 | 1012.4 |
| 20260502192630 | 16 | 262 | 4.8 | 14.5 | 0.00 | 0.00 | 0.00 | 35 | 1012.4 |
| 20260502192125 | 16 | 290 | 6.4 | 20.9 | 0.00 | 0.00 | 0.00 | 34 | 1012.4 |
| 20260502191618 | 16 | 285 | 6.4 | 20.9 | 0.00 | 0.00 | 0.00 | 34 | 1012.6 |
| 20260502191112 | 17 | 231 | 6.4 | 16.1 | 0.00 | 0.00 | 0.00 | 34 | 1012.6 |
| 20260502190606 | 17 | 263 | 4.8 | 14.5 | 0.00 | 0.00 | 0.00 | 33 | 1012.7 |
| 20260502190100 | 17 | 282 | 4.8 | 16.1 | 0.00 | 0.00 | 0.00 | 34 | 1012.9 |
| 20260502185554 | 16 | 298 | 4.8 | 16.1 | 0.00 | 0.00 | 0.00 | 34 | 1013.0 |
| 20260502185319 | 16 | 94 | 3.2 | 16.1 | 0.00 | 0.00 | 0.00 | 34 | 1013.1 |
| 20260502184542 | 16 | 295 | 3.2 | 16.1 | 0.00 | 0.00 | 0.00 | 33 | 1013.2 |
| 20260502184036 | 16 | 77 | 3.2 | 16.1 | 0.00 | 0.00 | 0.00 | 34 | 1013.1 |
| 20260502183801 | 16 | 274 | 4.8 | 16.1 | 0.00 | 0.00 | 0.00 | 35 | 1013.4 |
| 20260502183024 | 16 | 253 | 4.8 | 14.5 | 0.00 | 0.00 | 0.00 | 34 | 1013.5 |
| 20260502182518 | 16 | 292 | 6.4 | 16.1 | 0.00 | 0.00 | 0.00 | 36 | 1013.5 |
| 20260502182243 | 16 | 105 | 6.4 | 17.7 | 0.00 | 0.00 | 0.00 | 35 | 1013.7 |
| 20260502181510 | 16 | 270 | 4.8 | 17.7 | 0.00 | 0.00 | 0.00 | 34 | 1013.7 |
| 20260502181501 | 16 | 86 | 3.2 | 11.3 | 0.00 | 0.00 | 0.00 | 33 | 1013.8 |
| 20260502180456 | 16 | 245 | 3.2 | 14.5 | 0.00 | 0.00 | 0.00 | 34 | 1013.9 |
| 20260502170451 | 15 | 257 | 6.4 | 16.1 | 0.00 | 0.00 | 0.00 | 33 | 1014.9 |
| 20260502163951 | 14 | 97 | 4.8 | 16.1 | 0.00 | 0.00 | 0.00 | 35 | 1015.1 |
| 20260502163715 | 14 | 190 | 4.8 | 16.1 | 0.00 | 0.00 | 0.00 | 34 | 1015.2 |
| 20260502162939 | 14 | 260 | 4.8 | 14.5 | 0.00 | 0.00 | 0.00 | 35 | 1015.3 |
| 20260502162433 | 14 | 122 | 3.2 | 14.5 | 0.00 | 0.00 | 0.00 | 35 | 1015.4 |
| 20260502161927 | 14 | 203 | 3.2 | 14.5 | 0.00 | 0.00 | 0.00 | 36 | 1015.4 |
| 20260502161653 | 13 | 37 | 4.8 | 14.5 | 0.00 | 0.00 | 0.00 | 34 | 1015.6 |
| 20260502160914 | 13 | 217 | 4.8 | 14.5 | 0.00 | 0.00 | 0.00 | 34 | 1015.7 |
| 20260502160409 | 13 | 264 | 3.2 | 14.5 | 0.00 | 0.00 | 0.00 | 36 | 1015.8 |
| 20260502152334 | 12 | 321 | 3.2 | 11.3 | 0.00 | 0.00 | 0.00 | 34 | 1016.3 |
| 20260502151833 | 12 | 341 | 3.2 | 11.3 | 0.00 | 0.00 | 0.00 | 37 | 1016.4 |
| 20260502151332 | 12 | 319 | 4.8 | 11.3 | 0.00 | 0.00 | 0.00 | 36 | 1016.4 |
| 20260502151104 | 12 | 241 | 4.8 | 14.5 | 0.00 | 0.00 | 0.00 | 37 | 1016.5 |
| 20260502150333 | 12 | 279 | 4.8 | 14.5 | 0.00 | 0.00 | 0.00 | 37 | 1016.5 |
| 20260502130553 | 7 | 233 | 0.0 | 3.2 | 0.00 | 0.00 | 0.00 | 55 | 1017.3 |
| 20260502123318 | 5 | 221 | 0.0 | 0.0 | 0.00 | 0.00 | 0.00 | 59 | 1017.4 |
| 20260502123050 | 5 | 228 | 0.0 | 0.0 | 0.00 | 0.00 | 0.00 | 61 | 1017.3 |
| 20260502122548 | 5 | 236 | 0.0 | 1.6 | 0.00 | 0.00 | 0.00 | 62 | 1017.3 |
| 20260502121818 | 5 | 249 | 0.0 | 1.6 | 0.00 | 0.00 | 0.00 | 63 | 1017.3 |
| 20260502121319 | 4 | 246 | 0.0 | 1.6 | 0.00 | 0.00 | 0.00 | 64 | 1017.3 |
| 20260502121051 | 4 | 236 | 0.0 | 0.0 | 0.00 | 0.00 | 0.00 | 65 | 1017.3 |
| 20260502120313 | 4 | 236 | 0.0 | 0.0 | 0.00 | 0.00 | 0.00 | 65 | 1017.3 |
| 20260502115813 | 3 | 237 | 0.0 | 0.0 | 0.00 | 0.00 | 0.00 | 68 | 1017.2 |
| 20260502115314 | 2 | 237 | 0.0 | 0.0 | 0.00 | 0.00 | 0.00 | 70 | 1017.2 |
| 20260502114818 | 2 | 236 | 0.0 | 0.0 | 0.00 | 0.00 | 0.00 | 72 | 1017.2 |
| 20260502114813 | 2 | 236 | 0.0 | 0.0 | 0.00 | 0.00 | 0.00 | 71 | 1017.2 |
| 20260502114043 | 1 | 236 | 0.0 | 0.0 | 0.00 | 0.00 | 0.00 | 74 | 1017.3 |
| 20260502113314 | 1 | 236 | 0.0 | 0.0 | 0.00 | 0.00 | 0.00 | 75 | 1017.3 |
| 20260502112812 | 1 | 236 | 0.0 | 0.0 | 0.00 | 0.00 | 0.00 | 77 | 1017.3 |
| 20260502112313 | 0 | 236 | 0.0 | 0.0 | 0.00 | 0.00 | 0.00 | 79 | 1017.2 |
| 20260502111811 | 0 | 236 | 0.0 | 0.0 | 0.00 | 0.00 | 0.00 | 79 | 1017.2 |
| 20260502111313 | 0 | 236 | 0.0 | 0.0 | 0.00 | 0.00 | 0.00 | 81 | 1017.3 |
| 20260502110812 | 0 | 238 | 0.0 | 0.0 | 0.00 | 0.00 | 0.00 | 80 | 1017.3 |
| 20260502110311 | 0 | 238 | 0.0 | 0.0 | 0.00 | 0.00 | 0.00 | 79 | 1017.3 |
| 20260502105813 | 0 | 239 | 0.0 | 0.0 | 0.00 | 0.00 | 0.00 | 79 | 1017.2 |
| 20260502105313 | 0 | 239 | 0.0 | 0.0 | 0.00 | 0.00 | 0.00 | 78 | 1017.3 |
| 20260502104811 | 0 | 239 | 0.0 | 0.0 | 0.00 | 0.00 | 0.00 | 77 | 1017.3 |
| 20260502104308 | 0 | 239 | 0.0 | 1.6 | 0.00 | 0.00 | 0.00 | 77 | 1017.3 |
| 20260502103809 | 0 | 239 | 0.0 | 1.6 | 0.00 | 0.00 | 0.00 | 77 | 1017.3 |
| 20260502103540 | 0 | 239 | 0.0 | 0.0 | 0.00 | 0.00 | 0.00 | 76 | 1017.3 |
| 20260502102808 | 0 | 239 | 0.0 | 0.0 | 0.00 | 0.00 | 0.00 | 77 | 1017.2 |
| 20260502102307 | 0 | 239 | 0.0 | 0.0 | 0.00 | 0.00 | 0.00 | 77 | 1017.3 |
| 20260502102038 | 0 | 239 | 0.0 | 0.0 | 0.00 | 0.00 | 0.00 | 79 | 1017.3 |
| 20260502101307 | 0 | 239 | 0.0 | 0.0 | 0.00 | 0.00 | 0.00 | 80 | 1017.4 |
| 20260502100805 | 0 | 239 | 0.0 | 1.6 | 0.00 | 0.00 | 0.00 | 80 | 1017.4 |
| 20260502100305 | 0 | 240 | 0.0 | 1.6 | 0.00 | 0.00 | 0.00 | 79 | 1017.4 |
| 20260502091256 | 0 | 234 | 0.0 | 0.0 | 0.00 | 0.00 | 0.00 | 78 | 1017.4 |
| 20260502090756 | 0 | 234 | 0.0 | 0.0 | 0.00 | 0.00 | 0.00 | 78 | 1017.3 |
| 20260502090249 | 0 | 234 | 0.0 | 0.0 | 0.00 | 0.00 | 0.00 | 79 | 1017.3 |
| 20260502071310 | 2 | 231 | 0.0 | 0.0 | 0.00 | 0.00 | 0.00 | 70 | 1017.6 |
| 20260502070532 | 2 | 231 | 0.0 | 0.0 | 0.00 | 0.00 | 0.00 | 75 | 1017.6 |
| 20260502070026 | 2 | 231 | 0.0 | 0.0 | 0.00 | 0.00 | 0.00 | 73 | 1017.6 |
| 20260502065751 | 2 | 231 | 0.0 | 0.0 | 0.00 | 0.00 | 0.00 | 73 | 1017.6 |
| 20260502065014 | 2 | 231 | 0.0 | 0.0 | 0.00 | 0.00 | 0.00 | 67 | 1017.7 |
| 20260502064508 | 1 | 231 | 0.0 | 0.0 | 0.00 | 0.00 | 0.00 | 66 | 1017.6 |
| 20260502064002 | 1 | 231 | 0.0 | 0.0 | 0.00 | 0.00 | 0.00 | 66 | 1017.6 |
| 20260502063456 | 1 | 232 | 0.0 | 0.0 | 0.00 | 0.00 | 0.00 | 66 | 1017.7 |
| 20260502062949 | 2 | 232 | 0.0 | 0.0 | 0.00 | 0.00 | 0.00 | 66 | 1017.6 |
| 20260502062445 | 2 | 232 | 0.0 | 0.0 | 0.00 | 0.00 | 0.00 | 65 | 1017.6 |
| 20260502061938 | 2 | 233 | 0.0 | 0.0 | 0.00 | 0.00 | 0.00 | 65 | 1017.6 |
| 20260502061431 | 1 | 235 | 0.0 | 0.0 | 0.00 | 0.00 | 0.00 | 66 | 1017.6 |
| 20260502060926 | 1 | 235 | 0.0 | 1.6 | 0.00 | 0.00 | 0.00 | 65 | 1017.6 |
| 20260502060420 | 2 | 235 | 0.0 | 1.6 | 0.00 | 0.00 | 0.00 | 65 | 1017.6 |
| 20260502055914 | 2 | 235 | 0.0 | 1.6 | 0.00 | 0.00 | 0.00 | 65 | 1017.6 |
| 20260502055408 | 2 | 236 | 0.0 | 1.6 | 0.00 | 0.00 | 0.00 | 64 | 1017.6 |
| 20260502054902 | 2 | 229 | 0.0 | 1.6 | 0.00 | 0.00 | 0.00 | 63 | 1017.6 |
| 20260502054356 | 2 | 226 | 0.0 | 1.6 | 0.00 | 0.00 | 0.00 | 63 | 1017.6 |
| 20260502053851 | 2 | 229 | 0.0 | 0.0 | 0.00 | 0.00 | 0.00 | 63 | 1017.6 |
| 20260502053845 | 2 | 233 | 0.0 | 0.0 | 0.00 | 0.00 | 0.00 | 63 | 1017.7 |
| 20260502052838 | 2 | 232 | 0.0 | 1.6 | 0.00 | 0.00 | 0.00 | 61 | 1017.7 |
| 20260502052332 | 2 | 231 | 1.6 | 1.6 | 0.00 | 0.00 | 0.00 | 60 | 1017.7 |
| 20260502051826 | 3 | 231 | 1.6 | 1.6 | 0.00 | 0.00 | 0.00 | 60 | 1017.7 |
| 20260502051320 | 3 | 241 | 0.0 | 1.6 | 0.00 | 0.00 | 0.00 | 59 | 1017.7 |
| 20260502050814 | 3 | 248 | 0.0 | 0.0 | 0.00 | 0.00 | 0.00 | 60 | 1017.7 |
| 20260502050309 | 3 | 248 | 0.0 | 0.0 | 0.00 | 0.00 | 0.00 | 61 | 1017.7 |
| 20260502050032 | 4 | 248 | 0.0 | 0.0 | 0.00 | 0.00 | 0.00 | 60 | 1017.7 |
| 20260502045256 | 4 | 248 | 0.0 | 0.0 | 0.00 | 0.00 | 0.00 | 54 | 1017.7 |
| 20260502044749 | 4 | 248 | 0.0 | 0.0 | 0.00 | 0.00 | 0.00 | 54 | 1017.7 |
| 20260502044516 | 5 | 248 | 0.0 | 0.0 | 0.00 | 0.00 | 0.00 | 54 | 1017.7 |
| 20260502043738 | 5 | 248 | 0.0 | 0.0 | 0.00 | 0.00 | 0.00 | 52 | 1017.7 |
| 20260502043232 | 5 | 248 | 0.0 | 0.0 | 0.00 | 0.00 | 0.00 | 52 | 1017.7 |
| 20260502042957 | 5 | 248 | 0.0 | 0.0 | 0.00 | 0.00 | 0.00 | 52 | 1017.7 |
| 20260502042450 | 5 | 248 | 0.0 | 0.0 | 0.00 | 0.00 | 0.00 | 52 | 1017.7 |
| 20260502041714 | 5 | 250 | 0.0 | 0.0 | 0.00 | 0.00 | 0.00 | 52 | 1017.7 |
| 20260502041207 | 5 | 251 | 0.0 | 0.0 | 0.00 | 0.00 | 0.00 | 51 | 1017.7 |
| 20260502040708 | 5 | 254 | 0.0 | 0.0 | 0.00 | 0.00 | 0.00 | 51 | 1017.7 |
| 20260502040208 | 5 | 237 | 0.0 | 0.0 | 0.00 | 0.00 | 0.00 | 51 | 1017.7 |
| 20260502035938 | 5 | 233 | 0.0 | 0.0 | 0.00 | 0.00 | 0.00 | 50 | 1017.7 |
| 20260502035206 | 5 | 238 | 0.0 | 1.6 | 0.00 | 0.00 | 0.00 | 50 | 1017.7 |
| 20260502034933 | 5 | 233 | 0.0 | 1.6 | 0.00 | 0.00 | 0.00 | 50 | 1017.7 |
| 20260502034203 | 5 | 250 | 0.0 | 1.6 | 0.00 | 0.00 | 0.00 | 50 | 1017.7 |
| 20260502033702 | 5 | 240 | 0.0 | 1.6 | 0.00 | 0.00 | 0.00 | 49 | 1017.7 |
| 20260502033201 | 5 | 231 | 0.0 | 1.6 | 0.00 | 0.00 | 0.00 | 48 | 1017.7 |
| 20260502032701 | 6 | 233 | 0.0 | 0.0 | 0.00 | 0.00 | 0.00 | 47 | 1017.8 |
| 20260502032431 | 6 | 233 | 0.0 | 1.6 | 0.00 | 0.00 | 0.00 | 47 | 1017.8 |
| 20260502031700 | 6 | 235 | 0.0 | 1.6 | 0.00 | 0.00 | 0.00 | 47 | 1017.7 |
| 20260502031202 | 6 | 233 | 0.0 | 0.0 | 0.00 | 0.00 | 0.00 | 46 | 1017.7 |
| 20260502030700 | 6 | 233 | 0.0 | 0.0 | 0.00 | 0.00 | 0.00 | 45 | 1017.7 |
| 20260502030202 | 6 | 233 | 0.0 | 0.0 | 0.00 | 0.00 | 0.00 | 46 | 1017.7 |
| 20260502025658 | 6 | 241 | 0.0 | 3.2 | 0.00 | 0.00 | 0.00 | 45 | 1017.7 |
| 20260502025156 | 6 | 250 | 0.0 | 3.2 | 0.00 | 0.00 | 0.00 | 44 | 1017.7 |
| 20260502024657 | 6 | 301 | 0.0 | 1.6 | 0.00 | 0.00 | 0.00 | 44 | 1017.7 |
| 20260502024156 | 6 | 242 | 0.0 | 1.6 | 0.00 | 0.00 | 0.00 | 43 | 1017.7 |
| 20260502023927 | 6 | 245 | 0.0 | 1.6 | 0.00 | 0.00 | 0.00 | 43 | 1017.7 |
| 20260502023428 | 6 | 250 | 0.0 | 1.6 | 0.00 | 0.00 | 0.00 | 43 | 1017.7 |
| 20260502022658 | 6 | 233 | 0.0 | 1.6 | 0.00 | 0.00 | 0.00 | 43 | 1017.7 |
| 20260502022427 | 7 | 238 | 0.0 | 1.6 | 0.00 | 0.00 | 0.00 | 42 | 1017.7 |
| 20260502021929 | 7 | 238 | 0.0 | 0.0 | 0.00 | 0.00 | 0.00 | 41 | 1017.7 |
| 20260502021154 | 7 | 243 | 0.0 | 0.0 | 0.00 | 0.00 | 0.00 | 42 | 1017.6 |
| 20260502020653 | 7 | 269 | 0.0 | 0.0 | 0.00 | 0.00 | 0.00 | 41 | 1017.6 |
| 20260502020154 | 7 | 269 | 0.0 | 0.0 | 0.00 | 0.00 | 0.00 | 41 | 1017.5 |
| 20260502015652 | 7 | 269 | 0.0 | 0.0 | 0.00 | 0.00 | 0.00 | 40 | 1017.5 |
| 20260502015152 | 7 | 245 | 0.0 | 0.0 | 0.00 | 0.00 | 0.00 | 41 | 1017.5 |
| 20260502014652 | 8 | 245 | 0.0 | 0.0 | 0.00 | 0.00 | 0.00 | 40 | 1017.4 |
| 20260502014158 | 8 | 245 | 0.0 | 1.6 | 0.00 | 0.00 | 0.00 | 39 | 1017.3 |
| 20260502014153 | 8 | 245 | 0.0 | 0.0 | 0.00 | 0.00 | 0.00 | 39 | 1017.4 |
| 20260502013154 | 8 | 245 | 0.0 | 1.6 | 0.00 | 0.00 | 0.00 | 37 | 1017.3 |
| 20260502012922 | 8 | 323 | 0.0 | 0.0 | 0.00 | 0.00 | 0.00 | 37 | 1017.3 |
| 20260502012149 | 9 | 323 | 0.0 | 1.6 | 0.00 | 0.00 | 0.00 | 36 | 1017.3 |
| 20260502011921 | 9 | 324 | 0.0 | 4.8 | 0.00 | 0.00 | 0.00 | 35 | 1017.2 |
| 20260502011419 | 9 | 310 | 0.0 | 4.8 | 0.00 | 0.00 | 0.00 | 35 | 1017.2 |
| 20260502010649 | 10 | 308 | 0.0 | 3.2 | 0.00 | 0.00 | 0.00 | 36 | 1017.2 |
| 20260502010155 | 10 | 316 | 3.2 | 11.3 | 0.00 | 0.00 | 0.00 | 34 | 1017.1 |
| 20260502010150 | 10 | 292 | 0.0 | 6.4 | 0.00 | 0.00 | 0.00 | 35 | 1017.2 |
| 20260502005148 | 10 | 299 | 3.2 | 11.3 | 0.00 | 0.00 | 0.00 | 36 | 1017.2 |
| 20260502004920 | 10 | 6 | 1.6 | 11.3 | 0.00 | 0.00 | 0.00 | 37 | 1017.1 |
| 20260502004145 | 10 | 325 | 1.6 | 8.0 | 0.00 | 0.00 | 0.00 | 33 | 1017.1 |
| 20260502003642 | 10 | 278 | 1.6 | 8.0 | 0.00 | 0.00 | 0.00 | 33 | 1017.1 |
| 20260502003144 | 11 | 347 | 3.2 | 8.0 | 0.00 | 0.00 | 0.00 | 37 | 1017.1 |
| 20260502002643 | 11 | 329 | 4.8 | 11.3 | 0.00 | 0.00 | 0.00 | 35 | 1017.1 |
| 20260502002140 | 11 | 331 | 6.4 | 12.9 | 0.00 | 0.00 | 0.00 | 34 | 1017.1 |
| 20260502001913 | 11 | 340 | 8.0 | 12.9 | 0.00 | 0.00 | 0.00 | 38 | 1017.1 |
| 20260502001141 | 11 | 350 | 8.0 | 17.7 | 0.00 | 0.00 | 0.00 | 38 | 1017.1 |
| 20260502000910 | 11 | 5 | 4.8 | 17.7 | 0.00 | 0.00 | 0.00 | 36 | 1017.1 |
| 20260502000140 | 11 | 300 | 1.6 | 9.7 | 0.00 | 0.00 | 0.00 | 34 | 1017.1 |
| 20260501235640 | 11 | 303 | 1.6 | 8.0 | 0.00 | 0.00 | 0.00 | 34 | 1017.1 |
| 20260501235137 | 11 | 246 | 1.6 | 8.0 | 0.00 | 0.00 | 0.00 | 34 | 1017.1 |
| 20260501234638 | 11 | 276 | 3.2 | 8.0 | 0.00 | 0.00 | 0.00 | 32 | 1017.1 |
| 20260501234137 | 11 | 330 | 4.8 | 11.3 | 0.00 | 0.00 | 0.00 | 33 | 1017.1 |
| 20260501233637 | 11 | 27 | 4.8 | 11.3 | 0.00 | 0.00 | 0.00 | 33 | 1017.1 |
| 20260501233136 | 11 | 333 | 6.4 | 16.1 | 0.00 | 0.00 | 0.00 | 33 | 1017.1 |
| 20260501232639 | 11 | 321 | 8.0 | 20.9 | 0.00 | 0.00 | 0.00 | 33 | 1017.1 |
| 20260501232138 | 11 | 351 | 9.7 | 20.9 | 0.00 | 0.00 | 0.00 | 33 | 1017.0 |
| 20260501231630 | 11 | 345 | 8.0 | 17.7 | 0.00 | 0.00 | 0.00 | 40 | 1017.1 |
| 20260501231123 | 11 | 335 | 8.0 | 16.1 | 0.00 | 0.00 | 0.00 | 34 | 1017.1 |
| 20260501230621 | 11 | 300 | 11.3 | 17.7 | 0.00 | 0.00 | 0.00 | 34 | 1017.1 |
| 20260501230120 | 11 | 328 | 11.3 | 25.7 | 0.00 | 0.00 | 0.00 | 37 | 1017.1 |
| 20260501225621 | 12 | 345 | 9.7 | 25.7 | 0.00 | 0.00 | 0.00 | 32 | 1017.0 |
| 20260501225122 | 11 | 345 | 9.7 | 22.5 | 0.00 | 0.00 | 0.00 | 33 | 1017.0 |
| 20260501224620 | 11 | 296 | 9.7 | 22.5 | 0.00 | 0.00 | 0.00 | 33 | 1017.0 |
| 20260501224120 | 12 | 346 | 9.7 | 29.0 | 0.00 | 0.00 | 0.00 | 36 | 1017.1 |
| 20260501223618 | 12 | 43 | 8.0 | 29.0 | 0.00 | 0.00 | 0.00 | 33 | 1017.0 |
| 20260501223350 | 12 | 317 | 4.8 | 19.3 | 0.00 | 0.00 | 0.00 | 34 | 1017.0 |
| 20260501222618 | 12 | 285 | 4.8 | 16.1 | 0.00 | 0.00 | 0.00 | 32 | 1016.9 |
| 20260501222119 | 11 | 6 | 4.8 | 16.1 | 0.00 | 0.00 | 0.00 | 38 | 1017.0 |
| 20260501221851 | 11 | 278 | 3.2 | 8.0 | 0.00 | 0.00 | 0.00 | 31 | 1017.0 |
| 20260501221116 | 11 | 331 | 3.2 | 8.0 | 0.00 | 0.00 | 0.00 | 34 | 1017.1 |
| 20260501220845 | 11 | 326 | 3.2 | 12.9 | 0.00 | 0.00 | 0.00 | 34 | 1017.1 |
| 20260501220116 | 11 | 4 | 4.8 | 16.1 | 0.00 | 0.00 | 0.00 | 33 | 1017.1 |
| 20260501215615 | 11 | 5 | 8.0 | 25.7 | 0.00 | 0.00 | 0.00 | 35 | 1017.1 |
| 20260501215116 | 11 | 15 | 9.7 | 25.7 | 0.00 | 0.00 | 0.00 | 32 | 1017.1 |
| 20260501214616 | 12 | 32 | 8.0 | 17.7 | 0.00 | 0.00 | 0.00 | 36 | 1017.0 |
| 20260501214110 | 12 | 338 | 6.4 | 16.1 | 0.00 | 0.00 | 0.00 | 31 | 1017.1 |
| 20260501213604 | 12 | 6 | 6.4 | 16.1 | 0.00 | 0.00 | 0.00 | 35 | 1017.1 |